Airfield :
LOGIN :

Register | Disclaimer

   EN    FR    IT 

 










Legend :    VFR   Marginal VFR   IFR   Intensive IFR   Very Intensive IFR
Visi :
Ceiling :
>= 8 km
>= 3000ft
5 to 8 km
1000 to 3000 ft
1500m to 5 km
500 to 1000 ft
800 to 1500m
200 to 500 ft
< 800m
< 200 ft
Symbols :   Thunderstorms  Fog  Heavy snow  Heavy precipitations  Wind > 20 kt
SIGMETs :     Misc.  Thunderstorms  Icing  Turbulence  Mountain Waves  Volcanic Ashes






- Airport Elevation : 49 ft
- IATA code : SEN


EGMC - Southend

CURRENT METAR :
  • 221320Z 09013KT CAVOK 10/02 Q1028

EXPIRED METARs :
  • 221250Z 07012KT CAVOK 10/02 Q1028
  • 221220Z 09013KT CAVOK 10/02 Q1028
  • 221150Z 08012KT 030V100 9999 FEW032 10/02 Q1028
  • 221120Z 07012KT 030V100 9999 FEW032 10/02 Q1028
  • 221050Z 08011KT 050V110 9999 FEW028 10/02 Q1028
  • 221020Z 07011KT 020V090 9999 FEW028 09/02 Q1028

TAF TAF EGMC
Valid from the 22 at 12:00 until the 22 at 21:00 UTC


221057Z 2212/2221 07011KT 9999 FEW040



MET'MAP, your aeronautical weather chart ! - Copyright ORBIFLY December 2007 - Disclaimer

ORBIFLY MET'MAP TEAM :

Programming & Development : Alexandra Zaïnal
Concept & original design : Baudouin d'Aumeries
Assistance for programming : Marc-Olivier Méhu
Technical & hardware support : Manuel Goepfert

Contact : metmap@orbifly.com




SOURCES & CREDITS :

   NOAA